Location: Newark
(46.7000°N, 60.6000°W)
Time: 13:44:01
(UTC+00:00)

Vanguard 1 Rocket - All Passes

Search period start: 31 October 2020 00:00
Search period end: 10 November 2020 00:00
Orbit: 656 x 4221 km, 34.3° (Epoch: 30 October)

Date Brightness Start Highest point End Pass type
(mag) Time Alt. Az. Time Alt. Az. Time Alt. Az.
31 Oct - 13:16:51 10° SSW 13:19:51 14° S 13:22:26 10° SE daylight
31 Oct - 15:40:46 10° SW 15:43:53 18° S 15:47:03 10° SE daylight
31 Oct - 18:06:24 10° SW 18:08:00 11° SSW 18:09:45 10° S daylight
01 Nov - 12:06:36 10° S 12:09:05 12° SSE 12:11:13 10° SE daylight
01 Nov - 14:29:54 10° SW 14:33:25 19° S 14:36:32 10° SE daylight
01 Nov - 16:54:57 10° SW 16:57:22 14° SSW 16:59:58 10° SSE daylight
02 Nov - 13:18:49 10° SW 13:22:50 18° S 13:26:05 10° SE daylight
02 Nov - 15:43:51 10° SW 15:46:51 17° S 15:49:49 10° SE daylight
03 Nov - 12:07:37 10° SSW 12:12:05 17° S 12:15:32 10° SE daylight
03 Nov - 14:32:37 10° SW 14:36:23 20° S 14:39:38 10° SE daylight
03 Nov - 16:59:06 10° SSW 17:00:17 11° SSW 17:01:30 10° S daylight
04 Nov - 10:56:39 10° SSW 11:01:06 14° SSE 11:04:35 10° SE daylight
04 Nov - 13:21:06 10° SW 13:25:50 21° S 13:29:28 10° SE daylight
04 Nov - 15:47:05 10° SW 15:49:46 15° SSW 15:52:23 10° SSE daylight
05 Nov - 09:46:45 10° S 09:49:50 12° SSE 09:52:28 10° SE visible
05 Nov - 12:09:21 10° SW 12:15:06 21° S 12:19:13 10° SE daylight
05 Nov - 14:35:27 10° SW 14:39:19 20° S 14:42:36 10° SE daylight
06 Nov - 10:57:31 10° SSW 11:04:08 20° SSE 11:08:44 10° ESE daylight
06 Nov - 13:23:34 10° SW 13:28:48 23° S 13:32:41 10° SE daylight
06 Nov - 15:50:37 10° SW 15:52:39 13° SSW 15:54:36 10° S daylight
07 Nov - 09:46:01 10° SSW 09:52:50 17° SSE 09:57:46 10° SE visible
07 Nov - 12:11:24 10° SW 12:18:06 25° S 12:22:38 10° ESE daylight
07 Nov - 14:38:23 10° WSW 14:42:14 19° SSW 14:45:27 10° SSE daylight
08 Nov - 08:35:37 10° S 08:41:12 13° SSE 08:45:38 10° SE visible
08 Nov - 10:58:58 10° SW 11:07:08 25° S 11:12:24 10° ESE daylight
08 Nov - 13:26:11 10° WSW 13:31:46 25° S 13:35:47 10° SE daylight
09 Nov - 09:46:37 10° SSW 09:55:48 23° SSE 10:01:49 10° ESE visible
09 Nov - 12:13:38 10° WSW 12:21:05 29° S 12:25:54 10° ESE daylight
09 Nov - 14:41:28 10° WSW 14:45:05 17° SSW 14:48:06 10° SSE daylight
